Location: Atlanta
(33.7490°N, 84.3880°W)
Time: 05:00:45
(UTC-05:00)

Daily predictions for brighter satellites

Satellite Brightness Start Highest point End
(mag) Time Altitude Azimuth Time Altitude Azimuth Time Altitude Azimuth
CZ-3 R/B 4.5 01:21:47 10° W 02:48:32 52° SE 02:56:54 10° ESE
Cosmos 2333 Rocket 4.0 04:39:22 25° SE 04:39:22 25° SE 04:41:48 10° SE
Cosmos 2219 Rocket 4.2 04:56:21 18° SSE 04:56:21 18° SSE 04:57:47 10° SSE
OAO 2 Rocket 4.5 05:09:34 39° ENE 05:09:34 39° ENE 05:12:41 10° E
Cosmos 540 Rocket 3.9 05:17:12 59° ENE 05:17:14 59° ENE 05:22:15 10° SSE
NOSS 0 Rocket 4.3 05:21:20 48° SSW 05:21:20 48° SSW 05:25:47 10° S
Cosmos 2237 Rocket 2.3 05:22:48 67° S 05:22:48 67° S 05:27:42 10° SSE
DELTA 2 R/B (1) 4.4 05:21:24 39° S 05:22:25 43° SSE 05:27:39 10° ENE
SL-16 R/B 3.2 05:22:48 22° N 05:26:02 43° ENE 05:31:23 10° SE
Aureole 2 Rocket 4.0 05:26:05 42° ENE 05:26:09 42° ENE 05:30:04 10° SE
Cosmos 1743 Rocket 4.4 05:27:58 40° NE 05:28:59 49° E 05:33:13 10° SSE
Cosmos 2297 Rocket 3.6 05:33:23 24° N 05:33:23 24° N 05:35:39 10° N
Cosmos 2233 Rocket 4.1 05:28:20 10° S 05:34:32 76° E 05:40:49 10° N
Cosmos 1842 Rocket 4.0 05:30:29 10° S 05:34:43 59° E 05:39:01 10° NNE
ATLAS 2A CENTAUR R/B 3.8 05:36:03 34° SSW 05:36:13 34° S 05:39:01 10° ESE
COSMO-SKYMED 1 3.6 05:32:30 10° SE 05:36:36 43° ENE 05:39:28 18° N
Cosmos 2227 Rocket 4.2 05:46:54 14° N 05:46:54 14° N 05:47:44 10° N
Cosmos 1271 Rocket 4.1 05:45:23 10° SSE 05:48:57 38° E 05:52:30 10° NNE
BREEZE-M DEB (TANK) 3.3 05:52:33 55° W 05:53:08 60° SW 05:56:04 10° SSE
Cosmos 1500 Rocket 3.7 05:52:33 16° N 05:56:08 74° E 06:00:34 10° SSE
Cosmos 1816 Rocket 4.4 05:51:44 10° N 05:58:01 70° W 06:04:11 10° S
Ariane Rocket 3.4 05:54:32 10° NNE 05:59:37 64° ESE 06:04:40 10° S
SL-14 R/B 4.3 05:56:30 10° N 06:00:26 48° E 06:04:21 10° SSE
Cosmos 220 Rocket 4.3 06:01:45 47° NW 06:01:45 47° NW 06:05:25 10° N
Cosmos 2346 Rocket 4.4 05:57:55 10° N 06:04:04 89° W 06:10:07 10° S
Thor Agena Rocket 4.1 06:00:19 10° SSW 06:04:59 36° W 06:04:59 36° W
SKYMED 3 4.4 06:02:16 10° S 06:06:36 80° WSW 06:09:53 17° NNW
Tsikada Rocket 4.3 06:04:34 12° NNW 06:10:07 44° W 06:16:00 10° SSW
CZ-2C R/B 4.1 06:13:46 10° NNE 06:17:55 33° E 06:22:01 10° SSE
Cosmos 2333 Rocket 3.8 06:21:28 16° WSW 06:21:28 16° WSW 06:23:36 10° SW
Tiangong 2 2.7 06:19:35 12° SSW 06:22:10 32° SE 06:25:02 10° ENE
CZ-4 R/B 2.9 06:19:16 10° NNE 06:23:06 40° E 06:26:58 10° S
SKYMED 2 3.8 06:20:30 10° S 06:24:40 47° W 06:28:08 14° NNW
Cosmos 1464 Rocket 4.1 06:18:36 10° S 06:24:57 85° E 06:31:17 10° N
Cosmos 968 Rocket 4.0 06:21:14 10° SW 06:26:02 36° WNW 06:30:53 10° N
PAYLOAD A 4.2 06:21:05 10° NNE 06:26:04 69° ESE 06:30:50 10° S
CSL-04 Debris 4.3 06:20:43 10° NNE 06:26:14 82° ESE 06:31:40 10° SSW
CZ-3 R/B 4.3 06:21:34 15° W 06:28:53 19° WSW 06:35:17 10° SSW
Cosmos 1603 4.4 06:24:31 10° N 06:30:02 53° ENE 06:35:32 10° SE
Cosmos 2263 Rocket 4.0 06:26:48 10° SSE 06:31:49 34° ESE 06:36:53 10° NE
GPS 2-05 Rocket1 2.6 06:31:02 32° W 06:32:22 68° N 06:35:42 10° ENE
Meteor 2-12 Rocket 4.4 06:28:35 10° S 06:34:42 81° W 06:40:54 10° N
YAOGAN 1 4.2 06:30:46 10° NNE 06:34:48 37° E 06:38:48 10° SSE
Cosmos 773 Rocket 4.2 06:35:11 10° NNW 06:40:29 78° ENE 06:45:46 10° SSE
Coronas F rocket 4.3 06:40:12 10° NE 06:41:36 14° ENE 06:43:00 10° ESE
ATLAS 2A CENTAUR R/B 4.3 06:26:54 15° W 06:42:48 48° SSW 06:47:31 10° SE
USA 229 DEB 4.2 06:38:23 13° NW 06:44:22 42° WSW 06:51:05 10° S
USA 229 4.2 06:38:27 13° NW 06:44:28 43° WSW 06:51:12 10° S
Cosmos 1072 Rocket 4.5 06:38:42 10° SSW 06:44:47 59° W 06:50:51 10° N
Cosmos 2221 2.6 06:42:55 10° SSW 06:47:09 51° W 06:51:22 10° N
Cosmos 304 Rocket 4.5 06:43:30 12° NW 06:47:24 33° W 06:51:38 10° SSW
ISS -3.3 06:48:48 14° NW 06:51:28 78° NE 06:54:42 10° SE
OAO 2 Rocket 3.2 06:48:32 15° W 06:52:39 88° S 06:57:36 10° ESE
CSL-04 Rocket 3.9 06:50:19 10° N 06:55:17 43° WNW 07:00:15 10° SW
NOSS 3-1 (A) 4.3 06:50:37 10° NNW 06:58:28 78° ENE 07:06:57 10° SE
Genesis I 3.5 06:54:53 10° NNW 06:58:48 68° ENE 07:02:41 10° SE
Cosmos 2058 3.4 06:55:00 10° NNW 06:58:50 39° W 07:02:42 10° SSW
Cosmos 1184 Rocket 3.2 06:58:01 10° N 07:01:19 66° E 07:04:35 10° SSE
SPOT 3 Rocket 3.8 06:57:59 10° NNE 07:03:13 76° ESE 07:08:25 10° S
Gbstr 26 Del rocket 4.0 07:03:15 10° SW 07:08:31 76° SE 07:15:09 10° NE
DELTA 2 R/B (1) 3.6 07:03:14 10° W 07:08:45 66° NNW 07:14:18 10° ENE
SL-16 R/B 3.4 07:05:37 10° NW 07:09:46 21° W 07:13:55 10° SSW
COSMO-SKYMED 1 4.4 07:11:02 10° WSW 07:12:56 13° W 07:14:50 10° WNW
MOS 1 4.4 07:07:15 10° NNE 07:12:59 86° WNW 07:18:41 10° SSW
Cosmos 1703 3.6 07:09:22 10° NNW 07:13:08 46° W 07:16:53 10° SSW
OPS 8737 4.4 07:09:53 10° SSW 07:13:30 88° ESE 07:16:41 10° NNE
PSLV R/B 4.5 07:11:52 10° WNW 07:14:49 27° N 07:17:45 10° NE
Helios 1B rocket 2.8 07:11:23 10° SSE 07:15:28 71° ENE 07:19:34 10° N
